Regional Weather Roundup
Issued by NWS

Home | Current Version | Previous Version | Text Only | Print | Product List | Glossary On
Versions: 1 2 3 4 5 6 7 8 9 10 11 12 13 14 15 16 17 18 19 20 21 22 23 24 25 26 27 28 29 30 31 32 33 34 35 36 37 38 39 40 41 42 43 44 45 46 47 48 49 50
000
ASUS44 KJAN 190110
RWRMS

MISSISSIPPI HOURLY WEATHER ROUNDUP
NATIONAL WEATHER SERVICE JACKSON MS
800 PM CDT FRI AUG 18 2017

NOTE: "FAIR: INDICATES FEW OR NO CLOUDS BELOW 12,000 FEET WITH NO
SIGNIFICANT WEATHER AND/OR OBSTRUCTIONS TO VISIBILITY.

MSZ001>002-007>008-010>013-018>021-025>028-034>036-190200-
NORTHWEST MISSISSIPPI

CITY           SKY/WX    TMP DP  RH WIND       PRES   REMARKS
BATESVILLE     FAIR      78  74  88 CALM      29.98R
CLARKSDALE       N/A     84  79  84 CALM      29.95S HX  96
CLEVELAND      FAIR      86  80  84 CALM      29.94S HX 101
GREENWOOD      CLEAR     81  78  91 CALM      29.95S
GREENVILLE     CLEAR     85  77  77 SE3       29.94S HX  95
OLIVE BRANCH   PTCLDY   N/A N/A N/A CALM      29.97R
OXFORD         FAIR      77  72  83 CALM      29.99S
TUNICA           N/A     81  75  83 CALM      29.96R
WINONA         FAIR      81  79  94 CALM      29.97R HX  90
$$

MSZ003>006-009-014>017-022>024-029>033-037>039-190200-
NORTHEAST MISSISSIPPI

CITY           SKY/WX    TMP DP  RH WIND       PRES   REMARKS
COLUMBUS AFB   CLEAR     81  77  88 CALM      29.96S
STARKVILLE     FAIR      79  73  83 CALM      29.99R
TUPELO         CLEAR     84  69  60 CALM      29.97R
$$

MSZ040-058-190200-
CENTRAL MISSISSIPPI

CITY           SKY/WX    TMP DP  RH WIND       PRES   REMARKS
JACKSON INTL   PTCLDY    80  77  90 SE6       29.99R
JACKSON HAWKNS CLEAR     82  77  84 SE7       29.98S HX  90
MADISON        FAIR      79  75  89 CALM      29.98S
MERIDIAN KEY   MOCLDY    83  80  91 S6        30.00R HX  95
MERIDIAN NAS   CLOUDY    82  77  84 S3        29.99R HX  90
RAYMOND          N/A     84  77  79 CALM      29.97S HX  94
VICKSBURG VKS  CLEAR     82  79  89 SE3       29.96R HX  93
$$

MSZ059>079-190200-
SOUTH MISSISSIPPI

CITY           SKY/WX    TMP DP  RH WIND       PRES   REMARKS
COLUMBIA       FAIR      77 N/A N/A CALM      30.03S
HATTIESBURG    CLOUDY    80  75  84 CALM      30.02R
LAUREL         FAIR      78  78 100 CALM      30.01R
MCCOMB         MOCLDY    82  72  71 N6        30.01S
NATCHEZ        CLEAR     85  80  85 SE3       29.99R HX  99
PINE BELT      CLEAR     77  75  93 S3        30.02R
$$

MSZ080>082-190200-
COASTAL MISSISSIPPI

CITY           SKY/WX    TMP DP  RH WIND       PRES   REMARKS
BILOXI         CLOUDY    79  75  87 NW3       30.00R
PASCAGOULA     CLOUDY    77  72  84 CALM      30.01R
GULFPORT       CLOUDY    80  77  90 S5        30.00F
$$

LAZ007>009-015>016-023>026-190200-
NORTHEAST LOUISIANA

CITY           SKY/WX    TMP DP  RH WIND       PRES   REMARKS
BASTROP        FAIR      82  82  98 CALM      29.96S HX  96
TALLULAH/VBURG CLEAR     82  78  88 CALM      29.96S HX  91
VIDALIA          N/A    N/A N/A N/A MISG      29.97R
$$



USA.gov is the U.S. government's official web portal to all federal, state and local government web resources and services.